"Time","Value","Approval","myLocation"
"2023-05-06 00:00",3.864,"Working","OW355"
"2023-05-06 01:00",3.865,"Working","OW355"
"2023-05-06 02:00",3.867,"Working","OW355"
"2023-05-06 03:00",3.869,"Working","OW355"
"2023-05-06 04:00",3.869,"Working","OW355"
"2023-05-06 05:00",3.869,"Working","OW355"
"2023-05-06 06:00",3.869,"Working","OW355"
"2023-05-06 07:00",3.869,"Working","OW355"
"2023-05-06 08:00",3.869,"Working","OW355"
"2023-05-06 09:00",3.869,"Working","OW355"
"2023-05-06 10:00",3.869,"Working","OW355"
"2023-05-06 11:00",3.873,"Working","OW355"
"2023-05-06 12:00",3.874,"Working","OW355"
"2023-05-06 13:00",3.874,"Working","OW355"
"2023-05-06 14:00",3.873,"Working","OW355"
"2023-05-06 15:00",3.873,"Working","OW355"
"2023-05-06 16:00",3.874,"Working","OW355"
"2023-05-06 17:00",3.874,"Working","OW355"
"2023-05-06 18:00",3.875,"Working","OW355"
"2023-05-06 19:00",3.877,"Working","OW355"
"2023-05-06 20:00",3.878,"Working","OW355"
"2023-05-06 21:00",3.879,"Working","OW355"
"2023-05-06 22:00",3.879,"Working","OW355"
"2023-05-06 23:00",3.879,"Working","OW355"
"2023-05-07 00:00",3.879,"Working","OW355"
"2023-05-07 01:00",3.879,"Working","OW355"
"2023-05-07 02:00",3.883,"Working","OW355"
"2023-05-07 03:00",3.883,"Working","OW355"
"2023-05-07 04:00",3.885,"Working","OW355"
"2023-05-07 05:00",3.886,"Working","OW355"
"2023-05-07 06:00",3.884,"Working","OW355"
"2023-05-07 07:00",3.885,"Working","OW355"
"2023-05-07 08:00",3.885,"Working","OW355"
"2023-05-07 09:00",3.885,"Working","OW355"
"2023-05-07 10:00",3.885,"Working","OW355"
"2023-05-07 11:00",3.887,"Working","OW355"
"2023-05-07 12:00",3.889,"Working","OW355"
"2023-05-07 13:00",3.89,"Working","OW355"
"2023-05-07 14:00",3.889,"Working","OW355"
"2023-05-07 15:00",3.89,"Working","OW355"
"2023-05-07 16:00",3.89,"Working","OW355"
"2023-05-07 17:00",3.891,"Working","OW355"
"2023-05-07 18:00",3.894,"Working","OW355"
"2023-05-07 19:00",3.896,"Working","OW355"
"2023-05-07 20:00",3.896,"Working","OW355"
"2023-05-07 21:00",3.898,"Working","OW355"
"2023-05-07 22:00",3.897,"Working","OW355"
"2023-05-07 23:00",3.897,"Working","OW355"
"2023-05-08 00:00",3.898,"Working","OW355"
"2023-05-08 01:00",3.899,"Working","OW355"
"2023-05-08 02:00",3.901,"Working","OW355"
"2023-05-08 03:00",3.902,"Working","OW355"
"2023-05-08 04:00",3.903,"Working","OW355"
"2023-05-08 05:00",3.905,"Working","OW355"
"2023-05-08 06:00",3.904,"Working","OW355"
"2023-05-08 07:00",3.905,"Working","OW355"
"2023-05-08 08:00",3.905,"Working","OW355"
"2023-05-08 09:00",3.906,"Working","OW355"
"2023-05-08 10:00",3.906,"Working","OW355"
"2023-05-08 11:00",3.909,"Working","OW355"
"2023-05-08 12:00",3.911,"Working","OW355"
"2023-05-08 13:00",3.912,"Working","OW355"
"2023-05-08 14:00",3.913,"Working","OW355"
"2023-05-08 15:00",3.912,"Working","OW355"
"2023-05-08 16:00",3.912,"Working","OW355"
"2023-05-08 17:00",3.913,"Working","OW355"
"2023-05-08 18:00",3.916,"Working","OW355"
"2023-05-08 19:00",3.918,"Working","OW355"
"2023-05-08 20:00",3.92,"Working","OW355"
"2023-05-08 21:00",3.92,"Working","OW355"
"2023-05-08 22:00",3.918,"Working","OW355"
"2023-05-08 23:00",3.92,"Working","OW355"
"2023-05-09 00:00",3.92,"Working","OW355"
"2023-05-09 01:00",3.921,"Working","OW355"
"2023-05-09 02:00",3.923,"Working","OW355"
"2023-05-09 03:00",3.923,"Working","OW355"
"2023-05-09 04:00",3.926,"Working","OW355"
"2023-05-09 05:00",3.929,"Working","OW355"
"2023-05-09 06:00",3.928,"Working","OW355"
"2023-05-09 07:00",3.928,"Working","OW355"
"2023-05-09 08:00",3.929,"Working","OW355"
"2023-05-09 09:00",3.93,"Working","OW355"
"2023-05-09 10:00",3.93,"Working","OW355"
"2023-05-09 11:00",3.93,"Working","OW355"
"2023-05-09 12:00",3.934,"Working","OW355"
"2023-05-09 13:00",3.935,"Working","OW355"
"2023-05-09 14:00",3.937,"Working","OW355"
"2023-05-09 15:00",3.936,"Working","OW355"
"2023-05-09 16:00",3.937,"Working","OW355"
"2023-05-09 17:00",3.938,"Working","OW355"
"2023-05-09 18:00",3.937,"Working","OW355"
"2023-05-09 19:00",3.941,"Working","OW355"
"2023-05-09 20:00",3.942,"Working","OW355"
"2023-05-09 21:00",3.944,"Working","OW355"
"2023-05-09 22:00",3.945,"Working","OW355"
"2023-05-09 23:00",3.946,"Working","OW355"
"2023-05-10 00:00",3.945,"Working","OW355"
"2023-05-10 01:00",3.946,"Working","OW355"
"2023-05-10 02:00",3.946,"Working","OW355"
"2023-05-10 03:00",3.948,"Working","OW355"
"2023-05-10 04:00",3.95,"Working","OW355"
"2023-05-10 05:00",3.95,"Working","OW355"
"2023-05-10 06:00",3.951,"Working","OW355"
"2023-05-10 07:00",3.951,"Working","OW355"
"2023-05-10 08:00",3.951,"Working","OW355"
"2023-05-10 09:00",3.951,"Working","OW355"
"2023-05-10 10:00",3.952,"Working","OW355"
"2023-05-10 11:00",3.952,"Working","OW355"
"2023-05-10 12:00",3.955,"Working","OW355"
"2023-05-10 13:00",3.956,"Working","OW355"
"2023-05-10 14:00",3.958,"Working","OW355"
"2023-05-10 15:00",3.959,"Working","OW355"
"2023-05-10 16:00",3.96,"Working","OW355"
"2023-05-10 17:00",3.958,"Working","OW355"
"2023-05-10 18:00",3.958,"Working","OW355"
"2023-05-10 19:00",3.959,"Working","OW355"
"2023-05-10 20:00",3.961,"Working","OW355"
"2023-05-10 21:00",3.962,"Working","OW355"
"2023-05-10 22:00",3.963,"Working","OW355"
"2023-05-10 23:00",3.964,"Working","OW355"
"2023-05-11 00:00",3.965,"Working","OW355"
"2023-05-11 01:00",3.965,"Working","OW355"
"2023-05-11 02:00",3.966,"Working","OW355"
"2023-05-11 03:00",3.965,"Working","OW355"
"2023-05-11 04:00",3.968,"Working","OW355"
"2023-05-11 05:00",3.969,"Working","OW355"
"2023-05-11 06:00",3.969,"Working","OW355"
"2023-05-11 07:00",3.971,"Working","OW355"
"2023-05-11 08:00",3.969,"Working","OW355"
"2023-05-11 09:00",3.969,"Working","OW355"
"2023-05-11 10:00",3.969,"Working","OW355"
"2023-05-11 11:00",3.97,"Working","OW355"
"2023-05-11 12:00",3.969,"Working","OW355"
"2023-05-11 13:00",3.972,"Working","OW355"
"2023-05-11 14:00",3.973,"Working","OW355"
"2023-05-11 15:00",3.974,"Working","OW355"
"2023-05-11 16:00",3.975,"Working","OW355"
"2023-05-11 17:00",3.977,"Working","OW355"
"2023-05-11 18:00",3.977,"Working","OW355"
"2023-05-11 19:00",3.976,"Working","OW355"
"2023-05-11 20:00",3.976,"Working","OW355"
"2023-05-11 21:00",3.977,"Working","OW355"
"2023-05-11 22:00",3.979,"Working","OW355"
"2023-05-11 23:00",3.98,"Working","OW355"
"2023-05-12 00:00",3.981,"Working","OW355"
"2023-05-12 01:00",3.99,"Working","OW355"
"2023-05-12 02:00",3.992,"Working","OW355"
"2023-05-12 03:00",3.994,"Working","OW355"
"2023-05-12 04:00",3.988,"Working","OW355"
"2023-05-12 05:00",3.986,"Working","OW355"
"2023-05-12 06:00",3.986,"Working","OW355"
"2023-05-12 07:00",3.986,"Working","OW355"
"2023-05-12 08:00",3.986,"Working","OW355"
"2023-05-12 09:00",3.987,"Working","OW355"
"2023-05-12 10:00",3.989,"Working","OW355"
"2023-05-12 11:00",3.99,"Working","OW355"
"2023-05-12 12:00",3.99,"Working","OW355"
"2023-05-12 13:00",3.989,"Working","OW355"
"2023-05-12 14:00",3.99,"Working","OW355"
"2023-05-12 15:00",3.989,"Working","OW355"
"2023-05-12 16:00",3.992,"Working","OW355"
"2023-05-12 17:00",3.993,"Working","OW355"
"2023-05-12 18:00",3.995,"Working","OW355"
"2023-05-12 19:00",3.994,"Working","OW355"
"2023-05-12 20:00",3.995,"Working","OW355"
"2023-05-12 21:00",3.996,"Working","OW355"
"2023-05-12 22:00",3.996,"Working","OW355"
"2023-05-12 23:00",3.995,"Working","OW355"
"2023-05-13 00:00",3.995,"Working","OW355"
"2023-05-13 01:00",4.002,"Working","OW355"
"2023-05-13 02:00",4.005,"Working","OW355"
"2023-05-13 03:00",4.007,"Working","OW355"
"2023-05-13 04:00",4.002,"Working","OW355"
"2023-05-13 05:00",4.002,"Working","OW355"
"2023-05-13 06:00",4.003,"Working","OW355"
"2023-05-13 07:00",4.002,"Working","OW355"
"2023-05-13 08:00",4.001,"Working","OW355"
"2023-05-13 09:00",4,"Working","OW355"
"2023-05-13 10:00",4.001,"Working","OW355"
"2023-05-13 11:00",4.003,"Working","OW355"
"2023-05-13 12:00",4.004,"Working","OW355"
"2023-05-13 13:00",4.005,"Working","OW355"
"2023-05-13 14:00",4.005,"Working","OW355"
"2023-05-13 15:00",4.006,"Working","OW355"
"2023-05-13 16:00",4.007,"Working","OW355"
"2023-05-13 17:00",4.007,"Working","OW355"
"2023-05-13 18:00",4.005,"Working","OW355"
"2023-05-13 19:00",4.005,"Working","OW355"
"2023-05-13 20:00",4.005,"Working","OW355"
"2023-05-13 21:00",4.005,"Working","OW355"
"2023-05-13 22:00",4.006,"Working","OW355"
"2023-05-13 23:00",4.007,"Working","OW355"
"2023-05-14 00:00",4.007,"Working","OW355"
"2023-05-14 01:00",4.008,"Working","OW355"
"2023-05-14 02:00",4.007,"Working","OW355"
"2023-05-14 03:00",4.007,"Working","OW355"
"2023-05-14 04:00",4.007,"Working","OW355"
"2023-05-14 05:00",4.008,"Working","OW355"
"2023-05-14 06:00",4.009,"Working","OW355"
"2023-05-14 07:00",4.01,"Working","OW355"
"2023-05-14 08:00",4.011,"Working","OW355"
"2023-05-14 09:00",4.011,"Working","OW355"
"2023-05-14 10:00",4.009,"Working","OW355"
"2023-05-14 11:00",4.009,"Working","OW355"
"2023-05-14 12:00",4.009,"Working","OW355"
"2023-05-14 13:00",4.016,"Working","OW355"
"2023-05-14 14:00",4.019,"Working","OW355"
"2023-05-14 15:00",4.02,"Working","OW355"
"2023-05-14 16:00",4.013,"Working","OW355"
"2023-05-14 17:00",4.014,"Working","OW355"
"2023-05-14 18:00",4.014,"Working","OW355"
"2023-05-14 19:00",4.015,"Working","OW355"
"2023-05-14 20:00",4.015,"Working","OW355"
"2023-05-14 21:00",4.014,"Working","OW355"
"2023-05-14 22:00",4.013,"Working","OW355"
"2023-05-14 23:00",4.012,"Working","OW355"
"2023-05-15 00:00",4.014,"Working","OW355"
"2023-05-15 01:00",4.015,"Working","OW355"
"2023-05-15 02:00",4.016,"Working","OW355"
"2023-05-15 03:00",4.017,"Working","OW355"
"2023-05-15 04:00",4.017,"Working","OW355"
"2023-05-15 05:00",4.018,"Working","OW355"
"2023-05-15 06:00",4.017,"Working","OW355"
"2023-05-15 07:00",4.017,"Working","OW355"
"2023-05-15 08:00",4.015,"Working","OW355"
"2023-05-15 09:00",4.015,"Working","OW355"
"2023-05-15 10:00",4.014,"Working","OW355"
"2023-05-15 11:00",4.015,"Working","OW355"
"2023-05-15 12:00",4.016,"Working","OW355"
"2023-05-15 13:00",4.017,"Working","OW355"
"2023-05-15 14:00",4.018,"Working","OW355"
"2023-05-15 15:00",4.026,"Working","OW355"
"2023-05-15 16:00",4.022,"Working","OW355"
"2023-05-15 17:00",4.02,"Working","OW355"
"2023-05-15 18:00",4.022,"Working","OW355"
"2023-05-15 19:00",4.019,"Working","OW355"
"2023-05-15 20:00",4.019,"Working","OW355"
"2023-05-15 21:00",4.018,"Working","OW355"
"2023-05-15 22:00",4.021,"Working","OW355"
"2023-05-15 23:00",4.021,"Working","OW355"
"2023-05-16 00:00",4.022,"Working","OW355"
"2023-05-16 01:00",4.023,"Working","OW355"
"2023-05-16 02:00",4.031,"Working","OW355"
"2023-05-16 03:00",4.033,"Working","OW355"
"2023-05-16 04:00",4.035,"Working","OW355"
"2023-05-16 05:00",4.028,"Working","OW355"
"2023-05-16 06:00",4.027,"Working","OW355"
"2023-05-16 07:00",4.025,"Working","OW355"
"2023-05-16 08:00",4.025,"Working","OW355"
"2023-05-16 09:00",4.025,"Working","OW355"
"2023-05-16 10:00",4.025,"Working","OW355"
"2023-05-16 11:00",4.026,"Working","OW355"
"2023-05-16 12:00",4.027,"Working","OW355"
"2023-05-16 13:00",4.028,"Working","OW355"
"2023-05-16 14:00",4.036,"Working","OW355"
"2023-05-16 15:00",4.039,"Working","OW355"
"2023-05-16 16:00",4.04,"Working","OW355"
"2023-05-16 17:00",4.04,"Working","OW355"
"2023-05-16 18:00",4.031,"Working","OW355"
"2023-05-16 19:00",4.032,"Working","OW355"
"2023-05-16 20:00",4.033,"Working","OW355"
"2023-05-16 21:00",4.033,"Working","OW355"
"2023-05-16 22:00",4.033,"Working","OW355"
"2023-05-16 23:00",4.032,"Working","OW355"
"2023-05-17 00:00",4.033,"Working","OW355"
"2023-05-17 01:00",4.033,"Working","OW355"
"2023-05-17 02:00",4.033,"Working","OW355"
"2023-05-17 03:00",4.031,"Working","OW355"
"2023-05-17 04:00",4.03,"Working","OW355"
"2023-05-17 05:00",4.029,"Working","OW355"
"2023-05-17 06:00",4.028,"Working","OW355"
"2023-05-17 07:00",4.03,"Working","OW355"
"2023-05-17 08:00",4.03,"Working","OW355"
"2023-05-17 09:00",4.03,"Working","OW355"
"2023-05-17 10:00",4.031,"Working","OW355"
"2023-05-17 11:00",4.029,"Working","OW355"
"2023-05-17 12:00",4.028,"Working","OW355"
"2023-05-17 13:00",4.028,"Working","OW355"
"2023-05-17 14:00",4.03,"Working","OW355"
"2023-05-17 15:00",4.031,"Working","OW355"
"2023-05-17 16:00",4.031,"Working","OW355"
"2023-05-17 17:00",4.031,"Working","OW355"
"2023-05-17 18:00",4.032,"Working","OW355"
"2023-05-17 19:00",4.033,"Working","OW355"
"2023-05-17 20:00",4.033,"Working","OW355"
"2023-05-17 21:00",4.034,"Working","OW355"
"2023-05-17 22:00",4.034,"Working","OW355"
"2023-05-17 23:00",4.035,"Working","OW355"
"2023-05-18 00:00",4.032,"Working","OW355"
"2023-05-18 01:00",4.031,"Working","OW355"
"2023-05-18 02:00",4.031,"Working","OW355"
"2023-05-18 03:00",4.032,"Working","OW355"
"2023-05-18 04:00",4.033,"Working","OW355"
"2023-05-18 05:00",4.034,"Working","OW355"
"2023-05-18 06:00",4.034,"Working","OW355"
"2023-05-18 07:00",4.035,"Working","OW355"
"2023-05-18 08:00",4.034,"Working","OW355"
"2023-05-18 09:00",4.034,"Working","OW355"
"2023-05-18 10:00",4.032,"Working","OW355"
"2023-05-18 11:00",4.032,"Working","OW355"
"2023-05-18 12:00",4.035,"Working","OW355"
"2023-05-18 13:00",4.035,"Working","OW355"
"2023-05-18 14:00",4.037,"Working","OW355"
"2023-05-18 15:00",4.039,"Working","OW355"
"2023-05-18 16:00",4.04,"Working","OW355"
"2023-05-18 17:00",4.042,"Working","OW355"
"2023-05-18 18:00",4.043,"Working","OW355"
"2023-05-18 19:00",4.045,"Working","OW355"
"2023-05-18 20:00",4.045,"Working","OW355"
"2023-05-18 21:00",4.047,"Working","OW355"
"2023-05-18 22:00",4.048,"Working","OW355"
"2023-05-18 23:00",4.046,"Working","OW355"
"2023-05-19 00:00",4.048,"Working","OW355"
"2023-05-19 01:00",4.048,"Working","OW355"
"2023-05-19 02:00",4.057,"Working","OW355"
"2023-05-19 03:00",4.06,"Working","OW355"
"2023-05-19 04:00",4.053,"Working","OW355"
"2023-05-19 05:00",4.055,"Working","OW355"
"2023-05-19 06:00",4.055,"Working","OW355"
"2023-05-19 07:00",4.057,"Working","OW355"
"2023-05-19 08:00",4.055,"Working","OW355"
"2023-05-19 09:00",4.056,"Working","OW355"
"2023-05-19 10:00",4.057,"Working","OW355"
"2023-05-19 11:00",4.059,"Working","OW355"
"2023-05-19 12:00",4.06,"Working","OW355"
"2023-05-19 13:00",4.061,"Working","OW355"
"2023-05-19 14:00",4.058,"Working","OW355"
"2023-05-19 15:00",4.071,"Working","OW355"
"2023-05-19 16:00",4.073,"Working","OW355"
"2023-05-19 17:00",4.066,"Working","OW355"
"2023-05-19 18:00",4.068,"Working","OW355"
"2023-05-19 19:00",4.068,"Working","OW355"
"2023-05-19 20:00",4.069,"Working","OW355"
"2023-05-19 21:00",4.068,"Working","OW355"
"2023-05-19 22:00",4.067,"Working","OW355"
"2023-05-19 23:00",4.067,"Working","OW355"
"2023-05-20 00:00",4.069,"Working","OW355"
"2023-05-20 01:00",4.07,"Working","OW355"
"2023-05-20 02:00",4.07,"Working","OW355"
"2023-05-20 03:00",4.078,"Working","OW355"
"2023-05-20 04:00",4.073,"Working","OW355"
"2023-05-20 05:00",4.073,"Working","OW355"
"2023-05-20 06:00",4.073,"Working","OW355"
"2023-05-20 07:00",4.072,"Working","OW355"
"2023-05-20 08:00",4.072,"Working","OW355"
"2023-05-20 09:00",4.071,"Working","OW355"
"2023-05-20 10:00",4.074,"Working","OW355"
"2023-05-20 11:00",4.074,"Working","OW355"
"2023-05-20 12:00",4.075,"Working","OW355"
"2023-05-21 13:00",4.086,"Working","OW355"
"2023-05-21 14:00",4.088,"Working","OW355"
"2023-05-21 15:00",4.095,"Working","OW355"
"2023-05-21 16:00",4.098,"Working","OW355"
"2023-05-21 17:00",4.1,"Working","OW355"
"2023-05-21 18:00",4.101,"Working","OW355"
"2023-05-21 19:00",4.092,"Working","OW355"
"2023-05-21 20:00",4.091,"Working","OW355"
"2023-05-21 21:00",4.091,"Working","OW355"
"2023-05-21 22:00",4.093,"Working","OW355"
"2023-05-21 23:00",4.093,"Working","OW355"
"2023-05-22 00:00",4.094,"Working","OW355"
"2023-05-22 01:00",4.094,"Working","OW355"
"2023-05-22 02:00",4.095,"Working","OW355"
"2023-05-22 03:00",4.096,"Working","OW355"
"2023-05-22 04:00",4.094,"Working","OW355"
"2023-05-22 05:00",4.094,"Working","OW355"
"2023-05-22 06:00",4.094,"Working","OW355"
"2023-05-22 07:00",4.096,"Working","OW355"
"2023-05-22 08:00",4.098,"Working","OW355"
"2023-05-22 09:00",4.098,"Working","OW355"
"2023-05-22 10:00",4.099,"Working","OW355"
"2023-05-22 11:00",4.1,"Working","OW355"
"2023-05-22 12:00",4.101,"Working","OW355"
"2023-05-22 13:00",4.101,"Working","OW355"
"2023-05-22 14:00",4.102,"Working","OW355"
"2023-05-22 15:00",4.102,"Working","OW355"
"2023-05-22 16:00",4.102,"Working","OW355"
"2023-05-22 17:00",4.102,"Working","OW355"
"2023-05-22 18:00",4.104,"Working","OW355"
"2023-05-22 19:00",4.105,"Working","OW355"
"2023-05-22 20:00",4.106,"Working","OW355"
"2023-05-22 21:00",4.107,"Working","OW355"
"2023-05-22 22:00",4.108,"Working","OW355"
"2023-05-22 23:00",4.108,"Working","OW355"
"2023-05-23 00:00",4.109,"Working","OW355"
"2023-05-23 01:00",4.109,"Working","OW355"
"2023-05-23 02:00",4.109,"Working","OW355"
"2023-05-23 03:00",4.112,"Working","OW355"
"2023-05-23 04:00",4.112,"Working","OW355"
"2023-05-23 05:00",4.114,"Working","OW355"
"2023-05-23 06:00",4.115,"Working","OW355"
"2023-05-23 07:00",4.116,"Working","OW355"
"2023-05-23 08:00",4.114,"Working","OW355"
"2023-05-23 09:00",4.115,"Working","OW355"
"2023-05-23 10:00",4.115,"Working","OW355"
"2023-05-23 11:00",4.117,"Working","OW355"
"2023-05-23 12:00",4.118,"Working","OW355"
"2023-05-23 13:00",4.117,"Working","OW355"
"2023-05-23 14:00",4.122,"Working","OW355"
"2023-05-23 15:00",4.123,"Working","OW355"
"2023-05-23 16:00",4.125,"Working","OW355"
"2023-05-23 17:00",4.126,"Working","OW355"
"2023-05-23 18:00",4.125,"Working","OW355"
"2023-05-23 19:00",4.126,"Working","OW355"
"2023-05-23 20:00",4.129,"Working","OW355"
"2023-05-23 21:00",4.129,"Working","OW355"
"2023-05-23 22:00",4.139,"Working","OW355"
"2023-05-23 23:00",4.141,"Working","OW355"
"2023-05-24 00:00",4.143,"Working","OW355"
"2023-05-24 01:00",4.145,"Working","OW355"
"2023-05-24 02:00",4.145,"Working","OW355"
"2023-05-24 03:00",4.138,"Working","OW355"
"2023-05-24 04:00",4.138,"Working","OW355"
"2023-05-24 05:00",4.138,"Working","OW355"
"2023-05-24 06:00",4.14,"Working","OW355"
"2023-05-24 07:00",4.141,"Working","OW355"
"2023-05-24 08:00",4.142,"Working","OW355"
"2023-05-24 09:00",4.143,"Working","OW355"
"2023-05-24 10:00",4.143,"Working","OW355"
"2023-05-24 11:00",4.143,"Working","OW355"
"2023-05-24 12:00",4.143,"Working","OW355"
"2023-05-24 13:00",4.146,"Working","OW355"
"2023-05-24 14:00",4.147,"Working","OW355"
"2023-05-24 15:00",4.148,"Working","OW355"
"2023-05-24 16:00",4.149,"Working","OW355"
"2023-05-24 17:00",4.15,"Working","OW355"
"2023-05-24 18:00",4.151,"Working","OW355"
"2023-05-24 19:00",4.153,"Working","OW355"
"2023-05-24 20:00",4.155,"Working","OW355"
"2023-05-24 21:00",4.158,"Working","OW355"
"2023-05-24 22:00",4.158,"Working","OW355"
"2023-05-24 23:00",4.159,"Working","OW355"
"2023-05-25 00:00",4.16,"Working","OW355"
"2023-05-25 01:00",4.164,"Working","OW355"
"2023-05-25 02:00",4.166,"Working","OW355"
"2023-05-25 03:00",4.169,"Working","OW355"
"2023-05-25 04:00",4.171,"Working","OW355"
"2023-05-25 05:00",4.172,"Working","OW355"
"2023-05-25 06:00",4.174,"Working","OW355"
"2023-05-25 07:00",4.176,"Working","OW355"
"2023-05-25 08:00",4.178,"Working","OW355"
"2023-05-25 09:00",4.177,"Working","OW355"
"2023-05-25 10:00",4.179,"Working","OW355"
"2023-05-25 11:00",4.18,"Working","OW355"
"2023-05-25 12:00",4.183,"Working","OW355"
"2023-05-25 13:00",4.185,"Working","OW355"
"2023-05-25 14:00",4.187,"Working","OW355"
"2023-05-25 15:00",4.189,"Working","OW355"
"2023-05-25 16:00",4.191,"Working","OW355"
"2023-05-25 17:00",4.193,"Working","OW355"
"2023-05-25 18:00",4.195,"Working","OW355"
"2023-05-25 19:00",4.197,"Working","OW355"
"2023-05-25 20:00",4.197,"Working","OW355"
"2023-05-25 21:00",4.198,"Working","OW355"
"2023-05-25 22:00",4.199,"Working","OW355"
"2023-05-25 23:00",4.203,"Working","OW355"
"2023-05-26 00:00",4.203,"Working","OW355"
"2023-05-26 01:00",4.205,"Working","OW355"
"2023-05-26 02:00",4.206,"Working","OW355"
"2023-05-26 03:00",4.207,"Working","OW355"
"2023-05-26 04:00",4.209,"Working","OW355"
"2023-05-26 05:00",4.21,"Working","OW355"
"2023-05-26 06:00",4.212,"Working","OW355"
"2023-05-26 07:00",4.213,"Working","OW355"
"2023-05-26 08:00",4.212,"Working","OW355"
"2023-05-26 09:00",4.212,"Working","OW355"
"2023-05-26 10:00",4.213,"Working","OW355"
"2023-05-26 11:00",4.214,"Working","OW355"
"2023-05-26 12:00",4.216,"Working","OW355"
"2023-05-26 13:00",4.217,"Working","OW355"
"2023-05-26 14:00",4.219,"Working","OW355"
"2023-05-26 15:00",4.22,"Working","OW355"
"2023-05-26 16:00",4.222,"Working","OW355"
"2023-05-26 17:00",4.223,"Working","OW355"
"2023-05-26 18:00",4.224,"Working","OW355"
"2023-05-26 19:00",4.224,"Working","OW355"
"2023-05-26 20:00",4.223,"Working","OW355"
"2023-05-26 21:00",4.224,"Working","OW355"
"2023-05-26 22:00",4.227,"Working","OW355"
"2023-05-26 23:00",4.228,"Working","OW355"
"2023-05-27 00:00",4.229,"Working","OW355"
"2023-05-27 01:00",4.23,"Working","OW355"
"2023-05-27 02:00",4.24,"Working","OW355"
"2023-05-27 03:00",4.242,"Working","OW355"
"2023-05-27 04:00",4.236,"Working","OW355"
"2023-05-27 05:00",4.237,"Working","OW355"
"2023-05-27 06:00",4.236,"Working","OW355"
"2023-05-27 07:00",4.235,"Working","OW355"
"2023-05-27 08:00",4.235,"Working","OW355"
"2023-05-27 09:00",4.236,"Working","OW355"
"2023-05-27 10:00",4.238,"Working","OW355"
"2023-05-27 11:00",4.239,"Working","OW355"
"2023-05-27 12:00",4.24,"Working","OW355"
"2023-05-27 13:00",4.242,"Working","OW355"
"2023-05-27 14:00",4.243,"Working","OW355"
"2023-05-27 15:00",4.245,"Working","OW355"
"2023-05-27 16:00",4.246,"Working","OW355"
"2023-05-27 17:00",4.247,"Working","OW355"
"2023-05-27 18:00",4.248,"Working","OW355"
"2023-05-27 19:00",4.25,"Working","OW355"
"2023-05-27 20:00",4.251,"Working","OW355"
"2023-05-27 21:00",4.253,"Working","OW355"
"2023-05-27 22:00",4.254,"Working","OW355"
"2023-05-27 23:00",4.256,"Working","OW355"
"2023-05-28 00:00",4.257,"Working","OW355"
"2023-05-28 01:00",4.259,"Working","OW355"
"2023-05-28 02:00",4.261,"Working","OW355"
"2023-05-28 03:00",4.262,"Working","OW355"
"2023-05-28 04:00",4.263,"Working","OW355"
"2023-05-28 05:00",4.265,"Working","OW355"
"2023-05-28 06:00",4.266,"Working","OW355"
"2023-05-28 07:00",4.267,"Working","OW355"
"2023-05-28 08:00",4.268,"Working","OW355"
"2023-05-28 09:00",4.269,"Working","OW355"
"2023-05-28 10:00",4.269,"Working","OW355"
"2023-05-28 11:00",4.27,"Working","OW355"
"2023-05-28 12:00",4.27,"Working","OW355"
"2023-05-28 13:00",4.27,"Working","OW355"
"2023-05-28 14:00",4.274,"Working","OW355"
"2023-05-28 15:00",4.282,"Working","OW355"
"2023-05-28 16:00",4.285,"Working","OW355"
"2023-05-28 17:00",4.287,"Working","OW355"
"2023-05-28 18:00",4.289,"Working","OW355"
"2023-05-28 19:00",4.283,"Working","OW355"
"2023-05-28 20:00",4.284,"Working","OW355"
"2023-05-28 21:00",4.285,"Working","OW355"
"2023-05-28 22:00",4.285,"Working","OW355"
"2023-05-28 23:00",4.284,"Working","OW355"
"2023-05-29 00:00",4.284,"Working","OW355"
"2023-05-29 01:00",4.284,"Working","OW355"
"2023-05-29 02:00",4.286,"Working","OW355"
"2023-05-29 03:00",4.287,"Working","OW355"
"2023-05-29 04:00",4.288,"Working","OW355"
"2023-05-29 05:00",4.289,"Working","OW355"
"2023-05-29 06:00",4.29,"Working","OW355"
"2023-05-29 07:00",4.291,"Working","OW355"
"2023-05-29 08:00",4.291,"Working","OW355"
"2023-05-29 09:00",4.29,"Working","OW355"
"2023-05-29 10:00",4.291,"Working","OW355"
"2023-05-29 11:00",4.293,"Working","OW355"
"2023-05-29 12:00",4.294,"Working","OW355"
"2023-05-29 13:00",4.295,"Working","OW355"
"2023-05-29 14:00",4.304,"Working","OW355"
"2023-05-29 15:00",4.301,"Working","OW355"
"2023-05-29 16:00",4.3,"Working","OW355"